User: anonymous   Login
Location: Unspecified
(0.0000°N, 0.0000°E)
Time: 20:20:26
(UTC+00:00)
Language:

Cosmos 1410 - Orbit

View from above orbital plane
View from above orbital plane
View from above satellite
View from above satellite

Ground track
Ground track

The orbit data is extracted from the following two-line orbital elements,

1 13589U 82096A   18174.75548514 +.00000000 +00000-0 -72755-4 0  9992
2 13589 082.6105 096.9827 0005813 187.7760 199.8203 12.42305153621944
Epoch (UTC): 23 June 2018 18:07:53
Eccentricity: 0.0005813
inclination: 82.6105°
perigee height: 1492 km
apogee height: 1501 km
right ascension of ascending node: 96.9827°
argument of perigee: 187.7760°
revolutions per day: 12.42305153
mean anomaly at epoch: 199.8203°
orbit number at epoch: 62194

The dashed part of the orbit path shows where the satellite is in the earth's shadow,  

DLR